Simultaneous Nadir Overpasses (SNOs) Predictions

Prediction of SNOs between GOES-16 and LANDSAT-8 Satellite Orbit:

Table of predicted SNOs for the next 14.0 days since TLE Epoch: 4/11/2019
Index Date Time (GOES-16) GOES-16 Lat,Lon LANDSAT-8 Lat,Lon Distance(km) Time Diff (sec)
1 04/12/2019 02:56:55 -0.01, -75.20 0.74, -71.71 396.93 80
2 04/12/2019 15:18:09 0.01, -75.22 0.37, -76.87 188.06 80
3 04/14/2019 15:08:37 0.01, -75.22 -0.26, -73.91 148.95 80
4 04/15/2019 03:30:01 -0.01, -75.22 -0.85, -79.10 442.31 80
5 04/16/2019 14:56:26 0.01, -75.24 -0.90, -70.96 486.65 80
6 04/17/2019 03:17:49 -0.01, -75.23 -0.21, -76.15 104.38 80
7 04/19/2019 03:02:57 -0.01, -75.26 0.43, -73.20 234.41 80
8 04/19/2019 15:24:12 0.01, -75.27 0.68, -78.35 350.08 80
9 04/21/2019 15:12:00 0.02, -75.30 0.04, -75.40 10.53 80
10 04/23/2019 14:59:48 0.02, -75.34 -0.61, -72.44 329.40 80
11 04/24/2019 03:23:52 -0.02, -75.34 -0.48, -77.64 260.94 80




NCC Satellite Simultaneous Nadir Overpasses (SNOs) Prediction Service
